Guadalupe Pass, TX

9:51 AM MDT on April 23, 2018 (GMT -0600)
Guadalupe Pass

Weather History for KGDP - June, 2013

Change the Weather History Date:

Thursday, June 20, 2013

  Actual Average Record
Temperature  
Mean Temperature 80 °F -  
Max Temperature 97 °F 87 °F 100 °F (2006)
Min Temperature 64 °F 62 °F 59 °F (1999)
Cooling Degree Days 15    
Growing Degree Days 30 (Base 50)    
Moisture  
Dew Point 51 °F    
Average Humidity 43    
Maximum Humidity 68    
Minimum Humidity 17    
Precipitation  
Precipitation 0.01 in - - ()
Sea Level Pressure  
Sea Level Pressure 29.90 in    
Wind  
Wind Speed 17 mph (SW)    
Max Wind Speed 41 mph    
Max Gust Speed 62 mph    
Visibility 8 miles    
Events Rain    
Averages and records for this station are not official NWS values.
T = Trace of Precipitation, MM = Missing Value Source: NWS Daily Summary

Daily Weather History Graph

Daily Weather History Graph

Search for Another Location

Airport or City:

Astronomy

Jun. 20, 2013 Rise Set
Actual Time 5:53 AM MDT 8:07 PM MDT
Civil Twilight 5:25 AM MDT 8:36 PM MDT
Nautical Twilight 4:51 AM MDT 9:10 PM MDT
Astronomical Twilight 4:13 AM MDT 9:47 PM MDT
Moon 5:18 PM MDT (6/20) 3:14 AM MDT (6/20)
Length of Visible Light 15h 10m
Length of Day
14h 13m
Waxing Gibbous, 89% of the Moon is Illuminated
Jun 20
Waxing Gibbous
Jun 23
Full
Jun 29
Last Quarter
Jul 8
New
Jul 15
First Quarter

Hourly Weather History & Observations

Time (MDT) Temp. Heat Index Dew Point Humidity Pressure Visibility Wind Dir Wind Speed Gust Speed Precip Events Conditions
12:51 AM 73.9 °F - 53.1 °F 48% 30.16 in 8.0 mi SSE 11.5 mph - 0.00 in   Overcast
1:51 AM 73.0 °F - 55.0 °F 53% 29.82 in 8.0 mi East 10.4 mph 23.0 mph N/A   Clear
2:17 AM 73.9 °F - 48.9 °F 41% 30.12 in 9.0 mi South 12.7 mph 18.4 mph N/A   Clear
2:51 AM 73.0 °F - 53.1 °F 49% 29.81 in 9.0 mi SSW 20.7 mph 28.8 mph N/A   Clear
3:51 AM 73.0 °F - 52.0 °F 48% 29.81 in 9.0 mi SW 12.7 mph - N/A   Clear
4:51 AM 75.0 °F - 50.0 °F 41% 29.81 in 9.0 mi SW 11.5 mph - N/A   Clear
5:51 AM 72.0 °F - 52.0 °F 49% 29.85 in 8.0 mi WSW 9.2 mph - N/A   Clear
6:51 AM 73.0 °F - 53.1 °F 49% 29.86 in 7.0 mi WSW 13.8 mph - N/A   Clear
7:51 AM 75.0 °F - 54.0 °F 48% 29.87 in 7.0 mi WSW 16.1 mph - N/A   Clear
8:51 AM 80.1 °F 80.0 °F 54.0 °F 40% 29.88 in 7.0 mi WSW 16.1 mph - N/A   Clear
9:51 AM 82.9 °F - 51.1 °F 33% 29.88 in 8.0 mi WSW 20.7 mph - N/A   Clear
10:51 AM 84.9 °F 83.2 °F 53.1 °F 33% 29.86 in 8.0 mi SW 21.9 mph - N/A   Clear
11:51 AM 90.0 °F - 51.1 °F 26% 29.85 in 8.0 mi WSW 21.9 mph 31.1 mph N/A   Clear
12:51 PM 93.0 °F - 48.9 °F 22% 29.83 in 8.0 mi WSW 20.7 mph 28.8 mph N/A   Clear
1:51 PM 96.1 °F - 44.1 °F 17% 29.80 in 8.0 mi WSW 19.6 mph 28.8 mph N/A   Clear
2:51 PM 91.0 °F - 44.1 °F 20% 29.79 in 8.0 mi WSW 16.1 mph - N/A   Scattered Clouds
3:51 PM 87.1 °F - 46.0 °F 24% 29.78 in 8.0 mi WSW 10.4 mph - N/A   Mostly Cloudy
4:51 PM 81.0 °F - 42.1 °F 25% 29.82 in 9.0 mi Variable 6.9 mph - 0.01 in Rain Light Rain
5:51 PM 73.0 °F - 51.1 °F 46% 29.83 in 8.0 mi East 20.7 mph - 0.00 in   Mostly Cloudy
6:51 PM 73.0 °F - 51.1 °F 46% 29.82 in 8.0 mi ENE 23.0 mph - 0.00 in   Mostly Cloudy
7:16 PM 73.9 °F - 51.1 °F 45% 30.11 in 7.0 mi SW 41.4 mph 62.1 mph N/A   Squalls
7:26 PM 70.0 °F - 54.0 °F 57% 30.16 in 7.0 mi SW 28.8 mph 51.8 mph 0.00 in Rain Light Rain
7:51 PM 69.1 °F - 53.1 °F 57% 29.91 in 8.0 mi SSE 19.6 mph 23.0 mph 0.00 in   Mostly Cloudy
8:20 PM 71.1 °F - 52.0 °F 51% 30.13 in 9.0 mi ENE 20.7 mph - N/A   Clear
8:51 PM 69.1 °F - 53.1 °F 57% 29.85 in 9.0 mi NE 36.8 mph - N/A   Clear
9:51 PM 68.0 °F - 53.1 °F 59% 29.88 in 9.0 mi NE 31.1 mph - N/A   Clear
10:51 PM 64.9 °F - 54.0 °F 68% 29.94 in 9.0 mi ENE 24.2 mph - N/A   Clear
11:51 PM 69.1 °F - 48.9 °F 49% 29.92 in 9.0 mi ENE 15.0 mph 23.0 mph N/A   Clear